Location: Stara Lesna
(49.1528°N, 20.2911°E)
Time: 22:04:57
(UTC+02:00)

Cosmos 2297 Rocket - Pass Details

Date: 21 September 2019
Orbit: 841 x 842 km, 71.0° (Epoch: 22 October)

Event Time Altitude Azimuth Distance (km) Brightness Sun altitude
Rises 05:33:01 0° 331° (NNW) 3,409 5.2 -9.0°
Reaches altitude 10° 05:35:29 10° 331° (NNW) 2,470 4.5 -8.6°
Maximum altitude 05:41:10 90° 46° (NE) 849 2.3 -7.7°
Drops below altitude 10° 05:46:49 10° 153° (SSE) 2,454 4.9 -6.7°
Sets 05:49:15 0° 154° (SSE) 3,384 5.6 -6.4°
